Location: Boiro
(42.6475°N, 8.8834°W)
Time: 17:15:25
(UTC+01:00)

Transit 2A - Pass Details

Date: 02 December 2021
Orbit: 591 x 967 km, 66.7° (Epoch: 20 January)

Event Time Altitude Azimuth Distance (km) Brightness Sun altitude
Rises 02:25:03 0° 218° (SW) 3,260 - -65.8°
Reaches altitude 10° 02:27:23 10° 221° (SW) 2,391 - -65.6°
Maximum altitude 02:32:54 66° 304° (WNW) 950 - -64.9°
Drops below altitude 10° 02:39:01 10° 26° (NNE) 2,633 - -64.2°
Sets 02:41:41 0° 30° (NNE) 3,615 - -63.8°
